Cloquet, MN

3:32 AM CDT on June 26, 2017 (GMT -0500)
Cloquet Carlton County

Weather History for KCOQ - February, 2013

Change the Weather History Date:

Saturday, February 16, 2013

  Actual Average Record
Temperature  
Mean Temperature 6 °F -  
Max Temperature 15 °F 24 °F 53 °F (2011)
Min Temperature -5 °F 8 °F -11 °F (1997)
Degree Days  
Heating Degree Days 58    
Moisture  
Dew Point -6 °F    
Average Humidity 61    
Maximum Humidity 85    
Minimum Humidity 35    
Precipitation  
Precipitation 0.00 in - - ()
Sea Level Pressure  
Sea Level Pressure 30.10 in    
Wind  
Wind Speed 0 mph (NE)    
Max Wind Speed 4 mph    
Max Gust Speed -    
Visibility 9 miles    
Events Snow    
Averages and records for this station are not official NWS values.
T = Trace of Precipitation, MM = Missing Value Source: NWS Daily Summary

Daily Weather History Graph

Daily Weather History Graph

Search for Another Location

Airport or City:

Trip Planner

Search our weather history database for the weather conditions in past years. The results will help you decide how hot, cold, wet, or windy it might be!

Date:

Astronomy

Feb. 16, 2013 Rise Set
Actual Time 7:11 AM CST 5:37 PM CST
Civil Twilight 6:40 AM CST 6:08 PM CST
Nautical Twilight 6:05 AM CST 6:43 PM CST
Astronomical Twilight 5:30 AM CST 7:18 PM CST
Moon 9:58 AM CST (2/16) 12:03 AM CST (2/16)
Length of Visible Light 11h 27m
Length of Day
10h 25m
Waxing Crescent, 39% of the Moon is Illuminated
Feb 16
Waxing Crescent
Feb 17
First Quarter
Feb 25
Full
Mar 4
Last Quarter
Mar 11
New

Hourly Weather History & Observations

Time (CST) Temp. Windchill Dew Point Humidity Pressure Visibility Wind Dir Wind Speed Gust Speed Precip Events Conditions
12:16 AM 1.4 °F - -2.2 °F 85% 30.14 in 10.0 mi Calm Calm - N/A   Overcast
12:36 AM 1.4 °F - -2.2 °F 85% 30.14 in 7.0 mi Calm Calm - N/A   Overcast
12:55 AM 1.4 °F - -4.0 °F 78% 30.14 in 5.0 mi Calm Calm - N/A Snow Light Snow
1:16 AM 1.4 °F - -4.0 °F 78% 30.14 in 3.0 mi Calm Calm - N/A Snow Light Snow
1:36 AM 1.4 °F - -4.0 °F 78% 30.14 in 3.0 mi Calm Calm - N/A Snow Light Snow
1:55 AM 1.4 °F - -2.2 °F 85% 30.13 in 4.0 mi Calm Calm - N/A Snow Light Snow
2:16 AM 1.4 °F - -2.2 °F 85% 30.13 in 2.5 mi Calm Calm - N/A Snow Light Snow
2:36 AM 1.4 °F - -2.2 °F 85% 30.13 in 5.0 mi Calm Calm - N/A Snow Light Snow
2:55 AM 3.2 °F - -2.2 °F 78% 30.12 in 7.0 mi Calm Calm - N/A Snow Light Snow
3:16 AM 1.4 °F - -5.8 °F 72% 30.12 in 10.0 mi Calm Calm - N/A   Overcast
3:35 AM 1.4 °F - -4.0 °F 78% 30.11 in 10.0 mi Calm Calm - N/A Snow Light Snow
3:56 AM 1.4 °F - -4.0 °F 78% 30.11 in 10.0 mi Calm Calm - N/A   Overcast
4:16 AM -0.4 °F - -5.8 °F 78% 30.11 in 10.0 mi Calm Calm - N/A   Overcast
4:36 AM 1.4 °F - -4.0 °F 78% 30.11 in 10.0 mi Calm Calm - N/A   Overcast
4:55 AM 1.4 °F - -4.0 °F 78% 30.11 in 10.0 mi Calm Calm - N/A   Overcast
5:16 AM 1.4 °F - -5.8 °F 72% 30.11 in 7.0 mi Calm Calm - N/A Snow Light Snow
5:36 AM -0.4 °F - -5.8 °F 78% 30.12 in 7.0 mi Calm Calm - N/A Snow Light Snow
5:55 AM 1.4 °F - -5.8 °F 72% 30.12 in 10.0 mi Calm Calm - N/A   Overcast
6:16 AM -0.4 °F - -5.8 °F 78% 30.12 in 10.0 mi Calm Calm - N/A   Overcast
6:36 AM -0.4 °F - -5.8 °F 78% 30.12 in 7.0 mi Calm Calm - N/A Snow Light Snow
6:55 AM 1.4 °F - -5.8 °F 72% 30.12 in 10.0 mi Calm Calm - N/A   Overcast
7:16 AM -0.4 °F - -7.6 °F 72% 30.12 in 10.0 mi Calm Calm - N/A   Overcast
7:36 AM -2.2 °F - -7.6 °F 78% 30.12 in 10.0 mi Calm Calm - N/A   Overcast
7:55 AM -2.2 °F -10.4 °F -7.6 °F 78% 30.12 in 10.0 mi NNW 3.5 mph - N/A   Overcast
8:16 AM -0.4 °F - -5.8 °F 78% 30.13 in 10.0 mi Calm Calm - N/A   Overcast
8:36 AM 1.4 °F - -4.0 °F 78% 30.12 in 10.0 mi Calm Calm - N/A   Mostly Cloudy
8:55 AM 3.2 °F - -2.2 °F 78% 30.12 in 10.0 mi Calm Calm - N/A   Mostly Cloudy
9:16 AM 6.8 °F - -0.4 °F 72% 30.13 in 10.0 mi Calm Calm - N/A   Mostly Cloudy
9:36 AM 6.8 °F - -0.4 °F 72% 30.12 in 10.0 mi Calm Calm - N/A   Scattered Clouds
9:55 AM 6.8 °F - -0.4 °F 72% 30.13 in 10.0 mi Calm Calm - N/A   Scattered Clouds
10:16 AM 8.6 °F 2.0 °F -2.2 °F 62% 30.13 in 10.0 mi NE 3.5 mph - N/A   Mostly Cloudy
10:36 AM 8.6 °F - -4.0 °F 57% 30.13 in 10.0 mi Calm Calm - N/A   Mostly Cloudy
10:55 AM 8.6 °F - -5.8 °F 52% 30.13 in 10.0 mi Calm Calm - N/A   Scattered Clouds
11:15 AM 8.6 °F - -4.0 °F 57% 30.12 in 10.0 mi Calm Calm - N/A   Clear
11:36 AM 10.4 °F - -5.8 °F 48% 30.12 in 10.0 mi Calm Calm - N/A   Clear
11:56 AM 10.4 °F - -5.8 °F 48% 30.12 in 10.0 mi Calm Calm - N/A   Clear
12:15 PM 10.4 °F - -5.8 °F 48% 30.11 in 10.0 mi Calm Calm - N/A   Clear
12:36 PM 10.4 °F - -5.8 °F 48% 30.11 in 10.0 mi Calm Calm - N/A   Clear
12:56 PM 12.2 °F - -7.6 °F 41% 30.10 in 10.0 mi Calm Calm - N/A   Clear
1:15 PM 12.2 °F - -7.6 °F 41% 30.10 in 10.0 mi Calm Calm - N/A   Clear
1:36 PM 12.2 °F - -5.8 °F 45% 30.10 in 10.0 mi Calm Calm - N/A   Clear
1:56 PM 14.0 °F - -5.8 °F 41% 30.09 in 10.0 mi Calm Calm - N/A   Clear
2:15 PM 14.0 °F - -5.8 °F 41% 30.09 in 10.0 mi Calm Calm - N/A   Clear
2:36 PM 14.0 °F - -5.8 °F 41% 30.09 in 10.0 mi Calm Calm - N/A   Clear
2:55 PM 15.8 °F - -7.6 °F 35% 30.09 in 10.0 mi Calm Calm - N/A   Clear
3:16 PM 15.8 °F - -7.6 °F 35% 30.09 in 10.0 mi Calm Calm - N/A   Clear
3:36 PM 15.8 °F - -7.6 °F 35% 30.09 in 10.0 mi Calm Calm - N/A   Clear
3:55 PM 15.8 °F - -7.6 °F 35% 30.08 in 10.0 mi Calm Calm - N/A   Clear
4:16 PM 15.8 °F - -5.8 °F 38% 30.08 in 10.0 mi Calm Calm - N/A   Clear
4:36 PM 15.8 °F - -7.6 °F 35% 30.08 in 10.0 mi Calm Calm - N/A   Clear
4:55 PM 15.8 °F - -7.6 °F 35% 30.08 in 10.0 mi Calm Calm - N/A   Clear
5:16 PM 15.8 °F - -7.6 °F 35% 30.08 in 10.0 mi Calm Calm - N/A   Clear
5:35 PM 15.8 °F - -7.6 °F 35% 30.08 in 10.0 mi Calm Calm - N/A   Clear
5:56 PM 12.2 °F 6.1 °F -7.6 °F 41% 30.08 in 10.0 mi ESE 3.5 mph - N/A   Clear
6:16 PM 12.2 °F - -7.6 °F 41% 30.09 in 10.0 mi Calm Calm - N/A   Clear
6:36 PM 10.4 °F - -7.6 °F 44% 30.09 in 10.0 mi Calm Calm - N/A   Clear
6:56 PM 8.6 °F - -5.8 °F 52% 30.09 in 10.0 mi Calm Calm - N/A   Clear
7:16 PM 8.6 °F - -7.6 °F 48% 30.09 in 10.0 mi Calm Calm - N/A   Clear
7:36 PM 8.6 °F - -7.6 °F 48% 30.09 in 10.0 mi Calm Calm - N/A   Clear
7:56 PM 8.6 °F - -7.6 °F 48% 30.09 in 10.0 mi Calm Calm - N/A   Clear
8:16 PM 8.6 °F - -7.6 °F 48% 30.09 in 10.0 mi Calm Calm - N/A   Clear
8:35 PM 6.8 °F - -5.8 °F 56% 30.09 in 10.0 mi Calm Calm - N/A   Clear
8:56 PM 6.8 °F - -5.8 °F 56% 30.08 in 10.0 mi Calm Calm - N/A   Clear
9:15 PM 6.8 °F - -5.8 °F 56% 30.08 in 10.0 mi Calm Calm - N/A   Clear
9:36 PM 5.0 °F - -5.8 °F 61% 30.08 in 10.0 mi Calm Calm - N/A   Clear
9:56 PM 1.4 °F - -9.4 °F 61% 30.08 in 10.0 mi Calm Calm - N/A   Clear
10:15 PM 1.4 °F - -7.6 °F 66% 30.08 in 10.0 mi Calm Calm - N/A   Clear
10:36 PM 1.4 °F - -7.6 °F 66% 30.07 in 10.0 mi Calm Calm - N/A   Clear
10:56 PM -0.4 °F - -9.4 °F 66% 30.06 in 10.0 mi Calm Calm - N/A   Clear
11:15 PM -2.2 °F - -11.2 °F 66% 30.06 in 10.0 mi Calm Calm - N/A   Clear
11:36 PM -2.2 °F - -9.4 °F 71% 30.06 in 10.0 mi Calm Calm - N/A   Clear
11:56 PM -5.8 °F - -13.0 °F 71% 30.06 in 10.0 mi Calm Calm - N/A   Clear